[[{"header":{"parameterUnit":"m.s-1","parameterCategory":1,"la1":30.2991,"la2":30.254,"lo1":-89.0895,"lo2":-89.0444,"dy":0.0017,"dx":0.0017,"nx":28,"ny":28,"refTime":"2023-10-11T21:00:00:Z","depth":0,"parameterNumber":2,"parameterNumberName":"U-component_of_WINDS"},"data":[0,0,0,0,0,0,0,0,0,0,0,0,0,0,0,0,0,0,0,0,0,0,0,0,0,0,0,0,0,0,0,0,0,0,0,0,0,0,0,0,0,0,0,0,0,0,0,0,0,0,0,0,0,0,0,0,0,0,0.0082,0.008,0,-0.012,-0.0123,-0.0125,-0.02,-0.0199,-0.0199,-0.0198,-0.0414,-0.042,-0.0426,0,0,0,0,0,0,0,0,0,0,0,0,0,0.0396,0.0391,0.0082,0.008,0.0077,-0.012,-0.0123,-0.0126,-0.02,-0.0199,-0.0199,-0.0198,-0.0412,-0.0419,-0.0427,0,0,0,0,0,0,0,0,0,0,0,0,0,0.0233,0.0389,0.0083,0.0016,0.0008,-0.012,-0.0123,-0.0126,-0.02,-0.0199,-0.0198,-0.0197,-0.0409,-0.0418,-0.0428,-0.0507,0,0,-0.0457,-0.0461,0,0,0,0,0,0,0,0,0.0243,0.0222,0.0029,0.0021,0.0012,-0.0134,-0.0091,-0.0254,-0.0201,-0.0121,-0.0198,-0.0197,-0.0322,-0.0339,-0.0379,-0.0517,-0.0526,-0.0458,-0.0464,-0.0468,-0.047,0,0,0,0,0,0,0,0.0254,0.023,0.0002,0.0026,0.0015,-0.0006,-0.0028,-0.0122,-0.0225,-0.0128,-0.0134,-0.0157,-0.0326,-0.037,-0.0385,-0.053,-0.0458,-0.0466,-0.0472,-0.0476,-0.0745,-0.0747,0,0,0,0,0,0,0.0278,0.024,0.0008,-0.0004,0.0132,-0.0012,-0.0037,-0.0088,-0.0224,-0.0244,-0.0157,-0.0159,-0.0354,-0.0373,-0.0393,-0.0496,-0.0468,-0.0477,-0.0482,-0.0744,-0.0746,-0.0747,0,0,0,0,0,0,0.0285,0.0258,0.0016,0.0116,0.0084,-0.0019,-0.0076,-0.0093,-0.0136,-0.0246,-0.0266,-0.0182,-0.0354,-0.0379,-0.0478,-0.0504,-0.0481,-0.049,-0.0742,-0.0745,-0.0747,-0.0702,0,0,0,0,0,0,0.0294,0.0261,0.0231,0.0116,0.0079,-0.0063,-0.0077,-0.0098,-0.0151,-0.0156,-0.0275,-0.0293,-0.0355,-0.0463,-0.0487,-0.0517,-0.0497,-0.0741,-0.0743,-0.0746,-0.0702,-0.0702,-0.0703,0,0,0,0,0,0.0306,0.0251,0.023,0.0203,0.0041,-0.0064,-0.0086,-0.0153,-0.0153,-0.0185,-0.0256,-0.029,-0.0497,-0.0473,-0.0501,-0.0534,-0.0739,-0.0743,-0.0746,-0.0701,-0.0702,-0.0703,0,0,0,0,0,0,0.0363,0.0234,0.021,0.0117,0.0038,-0.0077,-0.0119,-0.0152,-0.0235,-0.0236,-0.0319,-0.0345,-0.0438,-0.0496,-0.0466,-0.0619,-0.0621,-0.063,-0.0577,-0.0579,-0.058,-0.0565,-0.0505,0,0,0,0,0,0.0365,0.0293,0.0184,0.0112,0.0074,-0.0015,-0.0064,-0.0108,-0.0195,-0.0229,-0.0308,-0.0392,-0.0477,-0.0531,-0.0615,-0.071,-0.0738,-0.0747,-0.0747,-0.0747,-0.0755,-0.0811,-0.0817,-0.0758,-0.0758,-0.0758,0,0,0.0368,0.0289,0.0248,0.0121,0.0055,-0.002,-0.0043,-0.0122,-0.0179,-0.0242,-0.034,-0.04,-0.0501,-0.0598,-0.0645,-0.0649,-0.0777,-0.0751,-0.075,-0.0758,-0.0815,-0.0821,-0.0826,-0.076,-0.076,-0.0759,0,0,0.0335,0.0269,0.0201,0.0135,0.0036,-0.0023,-0.0039,-0.0149,-0.0191,-0.029,-0.0339,-0.041,-0.0553,-0.0623,-0.0677,-0.0737,-0.0772,-0.0762,-0.0767,-0.0821,-0.0826,-0.083,-0.0854,-0.0861,-0.0769,-0.0769,-0.0769,0,0.035,0.0237,0.017,0.0094,0.0039,-0.0019,-0.009,-0.0151,-0.0274,-0.0312,-0.0314,-0.0496,-0.0568,-0.0683,-0.0697,-0.0739,-0.0762,-0.075,-0.0819,-0.0824,-0.083,-0.0853,-0.0861,-0.0767,-0.0767,-0.0767,-0.0768,0,0.026,0.0182,0.0139,0.0025,-0.0035,-0.0108,-0.0189,-0.0243,-0.0282,-0.0342,-0.0443,-0.0531,-0.0634,-0.0664,-0.0705,-0.0786,-0.0786,-0.0802,-0.0807,-0.0832,-0.0856,-0.0865,-0.0765,-0.0765,-0.0766,-0.0766,0,0,0.0256,0.0106,0.0091,0.0038,-0.0076,-0.0139,-0.0216,-0.0314,-0.0359,-0.0442,-0.051,-0.063,-0.0646,-0.0707,-0.0756,-0.0803,-0.0848,-0.0815,-0.0819,-0.082,-0.0946,-0.0934,-0.0943,-0.0871,-0.0873,-0.0874,-0.0938,0,0.0206,0.007,0.0007,-0.0103,-0.0177,-0.0233,-0.0301,-0.0379,-0.0437,-0.051,-0.0575,-0.0659,-0.0673,-0.0711,-0.076,-0.0832,-0.0875,-0.0828,-0.0938,-0.0941,-0.0913,-0.0955,-0.0943,-0.0999,-0.0948,-0.0949,-0.095,0,0.013,0.0049,-0.0067,-0.0173,-0.0206,-0.0265,-0.0361,-0.0429,-0.0521,-0.056,-0.0628,-0.0675,-0.0761,-0.0757,-0.0878,-0.0845,-0.0894,-0.0936,-0.094,-0.0955,-0.0949,-0.0973,-0.1018,-0.1027,-0.0965,-0.0964,-0.0963,0,0.0136,-0.0001,-0.0089,-0.0133,-0.0258,-0.0298,-0.0353,-0.0443,-0.0498,-0.0583,-0.0621,-0.0715,-0.0767,-0.084,-0.0912,-0.0903,-0.1027,-0.1029,-0.1065,-0.1063,-0.109,-0.1088,-0.1146,-0.1118,-0.1118,-0.1118,-0.1117,0,0.0086,0.0017,-0.0088,-0.0142,-0.0222,-0.0295,-0.0374,-0.0433,-0.0513,-0.0581,-0.0636,-0.07,-0.0791,-0.0867,-0.0924,-0.1017,-0.104,-0.1076,-0.1091,-0.1072,-0.1068,-0.1107,-0.1106,-0.112,-0.1119,-0.1119,-0.1119,0,0.0079,0.0007,-0.0093,-0.0202,-0.0232,-0.0286,-0.0382,-0.0439,-0.0498,-0.0585,-0.061,-0.0705,-0.0798,-0.0876,-0.0999,-0.1038,-0.1134,-0.1151,-0.1103,-0.1111,-0.1143,-0.1139,-0.1229,-0.1246,-0.1204,-0.1205,-0.1205,0,0.0051,-0.0003,-0.0118,-0.0167,-0.022,-0.0298,-0.0354,-0.0429,-0.0486,-0.0594,-0.0638,-0.0734,-0.0815,-0.0961,-0.1043,-0.1138,-0.1159,-0.1184,-0.1174,-0.1154,-0.1162,-0.1158,-0.1165,-0.1185,-0.1185,-0.1185,-0.1185,0,0.0009,-0.0024,-0.0102,-0.0192,-0.0257,-0.0333,-0.041,-0.0448,-0.0537,-0.0599,-0.0693,-0.0755,-0.088,-0.0976,-0.1079,-0.1139,-0.1178,-0.1187,-0.1201,-0.1183,-0.1154,-0.1172,-0.1106,-0.1185,-0.1185,-0.1185,-0.1185,-0.1185,-0.0011,-0.0063,-0.0152,-0.0237,-0.0302,-0.0373,-0.0432,-0.0498,-0.0577,-0.0682,-0.0722,-0.0819,-0.0911,-0.1054,-0.1114,-0.1193,-0.1198,-0.1218,-0.1223,-0.1227,-0.1225,-0.1139,-0.1212,-0.1212,-0.1212,-0.1212,-0.1212,0,-0.0058,-0.0118,-0.0195,-0.0301,-0.0368,-0.0396,-0.0483,-0.0539,-0.0622,-0.0703,-0.0781,-0.0891,-0.0984,-0.1073,-0.1171,-0.1218,-0.1238,-0.1241,-0.124,-0.1253,-0.1213,-0.1193,-0.1223,-0.1223,-0.1223,-0.1223,-0.1223,-0.1223,-0.0091,-0.018,-0.0223,-0.0347,-0.0407,-0.05,-0.0548,-0.0615,-0.068,-0.0798,-0.0875,-0.0931,-0.1017,-0.1122,-0.121,-0.1234,-0.1269,-0.1268,-0.1297,-0.1258,-0.1256,-0.1254,-0.1235,-0.1274,-0.1274,-0.1331,-0.1331,-0.1331]},{"header":{"parameterUnit":"m.s-1","parameterCategory":1,"la1":30.2991,"la2":30.254,"lo1":-89.0895,"lo2":-89.0444,"dy":0.0017,"dx":0.0017,"nx":28,"ny":28,"refTime":"2023-10-11T21:00:00:Z","depth":0,"parameterNumber":3,"parameterNumberName":"V-component_of_WINDS"},"data":[0,0,0,0,0,0,0,0,0,0,0,0,0,0,0,0,0,0,0,0,0,0,0,0,0,0,0,0,0,0,0,0,0,0,0,0,0,0,0,0,0,0,0,0,0,0,0,0,0,0,0,0,0,0,0,0,0,0,-6.6299,-6.63,0,-6.6369,-6.637,-6.6371,-6.6289,-6.6286,-6.6283,-6.628,-6.6347,-6.6351,-6.6356,0,0,0,0,0,0,0,0,0,0,0,0,0,-6.609,-6.6094,-6.6299,-6.63,-6.6301,-6.6369,-6.637,-6.6371,-6.629,-6.6286,-6.6283,-6.6279,-6.6345,-6.635,-6.6356,0,0,0,0,0,0,0,0,0,0,0,0,0,-6.6172,-6.6095,-6.6299,-6.6269,-6.6267,-6.6369,-6.637,-6.6371,-6.6291,-6.6286,-6.6282,-6.6277,-6.6343,-6.635,-6.6357,-6.649,0,0,-6.6378,-6.6381,0,0,0,0,0,0,0,0,-6.6168,-6.618,-6.6272,-6.6271,-6.6269,-6.6316,-6.632,-6.6411,-6.6292,-6.6281,-6.628,-6.6275,-6.634,-6.6347,-6.637,-6.6493,-6.6496,-6.6378,-6.6383,-6.6386,-6.6387,0,0,0,0,0,0,0,-6.6162,-6.6177,-6.6327,-6.6274,-6.6272,-6.625,-6.6257,-6.6337,-6.6335,-6.6282,-6.6276,-6.6286,-6.6338,-6.6363,-6.637,-6.6497,-6.6378,-6.6384,-6.6389,-6.6391,-6.6734,-6.6738,0,0,0,0,0,0,-6.6161,-6.6172,-6.6324,-6.6329,-6.6206,-6.6257,-6.6265,-6.6305,-6.6334,-6.6334,-6.629,-6.6282,-6.6354,-6.6363,-6.6372,-6.6531,-6.6385,-6.6392,-6.6396,-6.6729,-6.6735,-6.674,0,0,0,0,0,0,-6.6156,-6.6175,-6.6322,-6.6249,-6.6266,-6.6266,-6.6312,-6.6309,-6.6334,-6.634,-6.6339,-6.6316,-6.635,-6.6363,-6.6462,-6.6532,-6.6395,-6.6401,-6.6723,-6.6731,-6.6737,-6.6849,0,0,0,0,0,0,-6.6151,-6.6174,-6.6226,-6.6251,-6.627,-6.6412,-6.6316,-6.6314,-6.6347,-6.6338,-6.6365,-6.6365,-6.6348,-6.6452,-6.6469,-6.6539,-6.6407,-6.6717,-6.6726,-6.6735,-6.6839,-6.6859,-6.6877,0,0,0,0,0,-6.6144,-6.6253,-6.6229,-6.6248,-6.6336,-6.6416,-6.6427,-6.6407,-6.6353,-6.6405,-6.6408,-6.6364,-6.6522,-6.6463,-6.6481,-6.6555,-6.6712,-6.6724,-6.6734,-6.6831,-6.6855,-6.6876,0,0,0,0,0,0,-6.6234,-6.6256,-6.6229,-6.6351,-6.6383,-6.6402,-6.6467,-6.6434,-6.648,-6.6469,-6.644,-6.6447,-6.6553,-6.6563,-6.6497,-6.6685,-6.6608,-6.6623,-6.6675,-6.6698,-6.6717,-6.6712,-6.6412,0,0,0,0,0,-6.6269,-6.6335,-6.6349,-6.6455,-6.6472,-6.6467,-6.6501,-6.6483,-6.6514,-6.6527,-6.6537,-6.6567,-6.6624,-6.6661,-6.6713,-6.684,-6.6844,-6.6899,-6.6918,-6.6934,-6.6947,-6.7015,-6.704,-6.6777,-6.6777,-6.6777,0,0,-6.634,-6.636,-6.6403,-6.6474,-6.6496,-6.6563,-6.6479,-6.6553,-6.6602,-6.6537,-6.6632,-6.6641,-6.6673,-6.6787,-6.6837,-6.6798,-6.7021,-6.6948,-6.696,-6.6965,-6.7029,-6.7054,-6.7076,-6.6784,-6.6783,-6.6782,0,0,-6.6505,-6.6527,-6.6618,-6.6643,-6.6678,-6.6674,-6.6696,-6.6721,-6.6725,-6.6821,-6.6774,-6.683,-6.6928,-6.6953,-6.6978,-6.7153,-6.7113,-6.717,-6.7269,-6.7335,-6.7356,-6.7374,-6.7436,-6.7459,-6.7183,-6.7184,-6.7184,0,-6.6589,-6.669,-6.6668,-6.6747,-6.6778,-6.6725,-6.6816,-6.684,-6.689,-6.6913,-6.6869,-6.6992,-6.7009,-6.7128,-6.7171,-6.7193,-6.7216,-6.7167,-6.7355,-6.7373,-6.7389,-6.7449,-6.7472,-6.719,-6.719,-6.7189,-6.7188,0,-6.6791,-6.6862,-6.693,-6.6983,-6.7022,-6.7107,-6.7096,-6.7138,-6.7117,-6.7117,-6.7214,-6.7233,-6.7289,-6.7315,-6.7294,-6.7432,-6.7407,-6.736,-6.7281,-6.7422,-6.7477,-6.7499,-6.72,-6.7198,-6.7196,-6.7194,0,0,-6.7015,-6.7055,-6.7081,-6.7104,-6.714,-6.7193,-6.7274,-6.733,-6.7367,-6.7403,-6.747,-6.7555,-6.7512,-6.754,-6.7521,-6.758,-6.7717,-6.7525,-6.7525,-6.756,-6.7869,-6.7905,-6.7932,-6.7691,-6.7695,-6.7699,-6.7867,0,-6.718,-6.7324,-6.7307,-6.7443,-6.7508,-6.7458,-6.7528,-6.7557,-6.7559,-6.7613,-6.7614,-6.7675,-6.7613,-6.763,-6.7686,-6.7689,-6.7779,-6.7676,-6.7752,-6.7755,-6.7747,-6.7961,-6.7999,-6.8157,-6.7888,-6.7892,-6.7894,0,-6.7393,-6.744,-6.7584,-6.761,-6.7636,-6.7701,-6.7751,-6.7803,-6.7834,-6.7831,-6.7864,-6.7835,-6.7914,-6.7835,-6.7944,-6.7874,-6.7904,-6.791,-6.7916,-6.7922,-6.7834,-6.7974,-6.8207,-6.8231,-6.7928,-6.7925,-6.7923,0,-6.7543,-6.7641,-6.774,-6.7761,-6.7794,-6.7841,-6.7856,-6.7883,-6.7918,-6.7961,-6.7983,-6.8034,-6.8062,-6.8101,-6.8086,-6.8029,-6.8198,-6.8117,-6.8197,-6.8198,-6.8236,-6.8234,-6.8477,-6.8254,-6.8254,-6.8253,-6.8253,0,-6.773,-6.782,-6.7808,-6.7869,-6.7968,-6.7946,-6.8044,-6.8053,-6.8077,-6.8137,-6.8096,-6.8153,-6.8129,-6.8184,-6.8173,-6.8265,-6.8277,-6.8277,-6.8272,-6.8281,-6.8281,-6.83,-6.8289,-6.826,-6.8258,-6.8257,-6.8256,0,-6.7915,-6.791,-6.8015,-6.8038,-6.8046,-6.8118,-6.8137,-6.8193,-6.8192,-6.8269,-6.8286,-6.8284,-6.8347,-6.8335,-6.8404,-6.8396,-6.8511,-6.8493,-6.8502,-6.8498,-6.8579,-6.8572,-6.8844,-6.8879,-6.8633,-6.8635,-6.8637,0,-6.8035,-6.8103,-6.8135,-6.8174,-6.8193,-6.8256,-6.8292,-6.8272,-6.8311,-6.8352,-6.8403,-6.8463,-6.851,-6.8612,-6.8615,-6.8668,-6.8651,-6.8742,-6.8658,-6.8665,-6.8653,-6.8649,-6.8656,-6.8759,-6.8762,-6.8764,-6.8766,0,-6.8249,-6.8244,-6.8298,-6.8353,-6.8398,-6.8439,-6.8476,-6.8509,-6.8493,-6.8539,-6.8604,-6.864,-6.8711,-6.8771,-6.882,-6.8833,-6.8797,-6.8793,-6.8814,-6.8824,-6.8826,-6.8827,-6.8548,-6.8787,-6.8785,-6.8783,-6.8782,-6.8781,-6.8405,-6.8464,-6.8496,-6.8558,-6.8584,-6.862,-6.8675,-6.8681,-6.8736,-6.8794,-6.8778,-6.8852,-6.888,-6.8942,-6.8962,-6.9018,-6.8983,-6.9014,-6.9022,-6.903,-6.9041,-6.8817,-6.9026,-6.9026,-6.9025,-6.9025,-6.9024,0,-6.8618,-6.8636,-6.8694,-6.8748,-6.8797,-6.8761,-6.8799,-6.8842,-6.8908,-6.8939,-6.8986,-6.9061,-6.9118,-6.9127,-6.9181,-6.9224,-6.9209,-6.9239,-6.9235,-6.9239,-6.9068,-6.9044,-6.925,-6.925,-6.925,-6.925,-6.925,-6.925,-6.8734,-6.8832,-6.883,-6.894,-6.8957,-6.9031,-6.9056,-6.9088,-6.9113,-6.9199,-6.9247,-6.9253,-6.9274,-6.9329,-6.938,-6.9381,-6.9402,-6.9439,-6.9434,-6.9274,-6.9251,-6.923,-6.9207,-6.9444,-6.9444,-6.96,-6.9602,-6.9603]}]]